Flag for Canada Weather past 2 weeks in Windsor, Ontario, Canada

Now
37 °F

Overcast.


Feels Like: 30 °F
Forecast: 29 / 39 °F
Wind: 10 mph from West

Location: Windsor Weather Station

Current Time: Dec 28, 2014 at 3:54:10 AM

Latest Report: Dec 28, 2014 at 3:00 AM


Visibility: 15 mi

Pressure: 30.01 "Hg

Humidity: 75%

Dew point: 30 °F

Location of WindsorLocation

Historic Weather in Windsor — Graph

°F

Windsor temperature yesterday

Maximum temperature yesterday: 46 °F (at 2:00 PM)
Minimum temperature yesterday: 37 °F (at 3:00 AM)
Average temperature yesterday: 43 °F

Past Weeks' High & Low Weather Summary

 TemperatureHumidityPressure
High52 °F (Dec 24, 2:00 PM)100% (Dec 15, 8:00 PM)30.36 "Hg (Dec 15, 8:00 PM)
Low19 °F (Dec 20, 1:00 AM)59% (Dec 19, 1:00 PM)29.21 "Hg (Dec 24, 6:00 PM)
Average37 °F86%30.02 "Hg
* Reported Dec 13 2:00 AM — Dec 28 2:00 AM, Windsor, Weather by CustomWeather, © 2014

Note: Actual official high and low records may vary slightly from our data, if they occured in-between our weather recording intervals... More about our weather records

Advertising

Windsor weather history for previous 24 hours

 ConditionsComfort  
Time TempWeatherWind HumidityBarometerVisibility
2:00 AM
Dec 28
37 °FOvercast.14 mph81%29.99 "Hg15 mi
1:00 AM37 °FOvercast.16 mph81%29.98 "Hg15 mi
12:00 AM39 °FMostly cloudy.17 mph75%29.99 "Hg15 mi
11:54 PM
Dec 27
39 °FMostly cloudy.16 mph75%29.98 "Hg15 mi
11:00 PM39 °FLight rain. Overcast.16 mph81%29.99 "Hg12 mi
10:00 PM43 °FOvercast.21 mph71%29.99 "Hg15 mi
9:00 PM46 °FOvercast.18 mph82%29.97 "Hg15 mi
8:00 PM46 °FMostly cloudy.17 mph93%29.94 "Hg10 mi
7:00 PM46 °FOvercast.17 mph93%29.96 "Hg10 mi
6:00 PM46 °FOvercast.18 mph93%29.98 "Hg12 mi
5:00 PM46 °FOvercast.18 mph93%29.96 "Hg10 mi
4:00 PM46 °FOvercast.20 mph93%29.97 "Hg8 mi
3:00 PM46 °FOvercast.17 mph87%29.96 "Hg15 mi
2:00 PM46 °FLow clouds.18 mph93%29.97 "Hg8 mi
1:00 PM45 °FMostly cloudy.18 mph93%29.99 "Hg15 mi
12:00 PM45 °FOvercast.22 mph87%30.01 "Hg15 mi
11:47 AM45 °FMostly cloudy.22 mph87%30.03 "Hg10 mi
11:00 AM45 °FDrizzle. Mostly cloudy.17 mph81%30.07 "Hg8 mi
10:55 AM45 °FDrizzle. Overcast.21 mph81%30.07 "Hg8 mi
10:00 AM45 °FLight rain. Mostly cloudy.16 mph81%30.09 "Hg10 mi
9:00 AM43 °FLight rain. Fog.13 mph93%30.10 "Hg3 mi
8:00 AM43 °FLight rain. Overcast.13 mph87%30.11 "Hg6 mi
7:00 AM41 °FMostly cloudy.8 mph87%30.10 "Hg15 mi
6:00 AM39 °FOvercast.5 mph93%30.10 "Hg15 mi
5:00 AM39 °FPassing clouds.5 mph93%30.11 "Hg15 mi
4:00 AM39 °FOvercast.5 mph87%30.13 "Hg12 mi
3:00 AM37 °FPassing clouds.3 mph93%30.13 "Hg12 mi
Weather by CustomWeather, © 2014

See weather overviewHow to use our weather pages